Content
SEND FEEDBACK

Daily
Averages
Monthly
Summary
Mexico

CANCUN, QUINTANA ROO


Home > North America > Mexico > Quintana Roo
Elevation: 9 meters     Latitude: 21 09N     Longitude: 086 49W

WEATHER
 
SELECT A DAY
Number of Records: 166,321;   Date Range: 1/1/95 - 10/19/14
 
SHARE

PRINT THIS DATA

[ ← Previous Day ]
WEATHER ALMANAC - 22 OCTOBER, 2013
[ Next Day → ]
[ °F ]   °C
Weather ElementAverageHighLow
Temperature28 °C31 °C (10:48 am)25 °C (1:56 am)
Dewpoint24.4 °C27 °C (2:46 pm)24 °C (1:56 am)
Humidity81.3 %94 % (1:56 am)66 % (12:47 pm)
Barometer1012.2 hPa1013.5 hPa (10:48 am)1010.2 hPa (4:41 pm)
Wind Speed10.5 km/h25.9 km/h (10:48 am)
Weather ElementAverage
Visibility11.3 km
Wind DirectionESE (110 °)

Weather ElementTotal
Precipitation---
Cooling Degree Days9.7 (Base 18.3)
Growing Degree Days18 (Base 10)
Averaged from 23 records on 22 October, 2013
WEATHER CONDITIONS BREAKOUT
WIND DIRECTION BREAKOUT
WEATHER BY HOUR - 22 OCTOBER, 2013
[ °F ]   °C
Local TimeTemperatureDewpointHumidityBarometerVisibilityWind DirectionWind SpeedGust SpeedPrecipitationEventsConditions
1:56 AM25 °C24 °C94 %1012.9 hPa11.3 kmCalmPartly Cloudy
2:42 AM25 °C24 °C94 %1012.2 hPa11.3 kmESE (120°)5.6 km/hPartly Cloudy
3:46 AM25 °C24 °C94 %1011.2 hPa11.3 kmCalmPartly Cloudy
4:43 AM26 °C24 °C89 %1011.5 hPa11.3 kmESE (110°)9.3 km/hPartly Cloudy
5:43 AM25 °C24 °C94 %1011.9 hPa11.3 kmESE (110°)3.7 km/hPartly Cloudy
6:45 AM27 °C24 °C84 %1011.9 hPa11.3 kmESE (120°)13 km/hMostly Cloudy
7:45 AM28 °C25 °C84 %1012.2 hPa11.3 kmESE (110°)11.1 km/hScattered Clouds
8:45 AM29 °C25 °C79 %1012.5 hPa11.3 kmESE (110°)14.8 km/hScattered Clouds
9:41 AM30 °C25 °C74 %1012.9 hPa11.3 kmSE (140°)16.7 km/hScattered Clouds
10:48 AM31 °C25 °C70 %1013.5 hPa11.3 kmSE (130°)25.9 km/hMostly Cloudy
11:40 AM31 °C25 °C70 %1013.5 hPa11.3 kmSSE (150°)25.9 km/hScattered Clouds
12:47 PM31 °C24 °C66 %1012.9 hPa11.3 kmSSE (150°)16.7 km/hScattered Clouds
1:49 PM31 °C24 °C66 %1011.9 hPa11.3 kmSouth (180°)13 km/hScattered Clouds
2:46 PM31 °C27 °C79 %1010.8 hPa11.3 kmSouth (180°)14.8 km/hPartly Cloudy
3:44 PM31 °C24 °C66 %1010.8 hPa11.3 kmSSE (150°)11.1 km/hScattered Clouds
4:41 PM30 °C24 °C70 %1010.2 hPa11.3 kmESE (120°)14.8 km/hScattered Clouds
5:40 PM29 °C24 °C74 %1010.5 hPa11.3 kmSE (130°)14.8 km/hPartly Cloudy
6:40 PM27 °C24 °C84 %1010.8 hPa11.3 kmSE (130°)7.4 km/hScattered Clouds
7:45 PM27 °C25 °C89 %1012.2 hPa11.3 kmCalmScattered Clouds
8:42 PM27 °C24 °C84 %1012.5 hPa11.3 kmESE (110°)3.7 km/hPartly Cloudy
9:48 PM26 °C24 °C89 %1012.2 hPa11.3 kmCalmPartly Cloudy
10:47 PM26 °C24 °C89 %1013.2 hPa11.3 kmESE (120°)9.3 km/hPartly Cloudy
11:46 PM26 °C24 °C89 %1012.9 hPa11.3 kmSSE (160°)9.3 km/hPartly Cloudy
Hourly data recorded from MMUN, located 0 kilometers away from Cancun, Quintana Roo







STORIES FROM OUR PARTNERS